Volver al catálogo

THOR ABLESTAR DEB

ActivoLEO
NORAD 48816·DEBRIS·🇺🇸 United States

Lanzado Jun 29, 1961 desde Cape Canaveral Space Force Station

Loading…

Próximos Pases (próximas 24 horas)

TLE

ObsoletoSource: Space-Track

Época: Sep 7, 2026, 01:52 UTC

1 48816U 61015MU  26250.07839583  .00000668  00000-0  41398-3 0  9996
2 48816  66.8043  55.9793 0099159 136.8555 224.0359 14.08799531657370

Sigue THOR ABLESTAR DEB en tiempo real con AllMySat

Download on the App Store